TimeCST,TemperatureF,Dew PointF,Humidity,Sea Level PressureIn,VisibilityMPH,Wind Direction,Wind SpeedMPH,Gust SpeedMPH,PrecipitationIn,Events,Conditions,WindDirDegrees,DateUTC
1:53 AM,21.0,10.9,65,30.14,9.0,NW,41.4,55.2,0.00,Snow,Light Snow,310,2013-03-05 07:53:00
2:30 AM,21.2,10.4,63,30.10,10.0,WNW,36.8,50.6,0.00,,Overcast,300,2013-03-05 08:30:00
2:53 AM,21.0,10.9,65,30.17,10.0,WNW,34.5,52.9,0.00,,Overcast,300,2013-03-05 08:53:00
3:53 AM,19.9,10.9,68,30.21,10.0,WNW,33.4,49.5,N/A,,Overcast,300,2013-03-05 09:53:00
4:53 AM,19.0,10.9,71,30.26,10.0,NW,32.2,48.3,N/A,,Overcast,310,2013-03-05 10:53:00
5:53 AM,18.0,10.0,71,30.31,9.0,NW,35.7,43.7,0.00,,Overcast,310,2013-03-05 11:53:00
7:53 AM,18.0,10.0,71,30.37,10.0,NW,20.7,34.5,N/A,,Overcast,310,2013-03-05 13:53:00
8:53 AM,19.9,10.9,68,30.38,10.0,NW,27.6,35.7,0.00,,Overcast,310,2013-03-05 14:53:00
9:53 AM,21.9,12.0,66,30.41,10.0,NNW,28.8,34.5,N/A,,Overcast,330,2013-03-05 15:53:00
10:53 AM,23.0,12.0,63,30.42,10.0,NW,25.3,-,N/A,,Overcast,320,2013-03-05 16:53:00
11:53 AM,26.1,12.9,58,30.41,10.0,NNW,23.0,31.1,N/A,,Overcast,340,2013-03-05 17:53:00
12:53 PM,28.9,14.0,54,30.40,10.0,NNW,25.3,-,N/A,,Mostly Cloudy,330,2013-03-05 18:53:00
1:19 PM,28.4,14.0,55,30.31,10.0,NNW,25.3,32.2,N/A,,Scattered Clouds,330,2013-03-05 19:19:00
1:53 PM,30.9,14.0,50,30.40,10.0,NW,20.7,28.8,N/A,,Mostly Cloudy,320,2013-03-05 19:53:00
2:53 PM,30.0,14.0,51,30.40,10.0,NNW,21.9,28.8,N/A,,Scattered Clouds,340,2013-03-05 20:53:00
3:53 PM,30.9,14.0,50,30.41,10.0,NW,20.7,28.8,N/A,,Partly Cloudy,320,2013-03-05 21:53:00
4:53 PM,30.0,15.1,54,30.41,10.0,NNW,18.4,24.2,N/A,,Clear,340,2013-03-05 22:53:00
5:53 PM,28.0,15.1,58,30.43,10.0,North,12.7,-,N/A,,Clear,360,2013-03-05 23:53:00
6:53 PM,21.9,15.1,75,30.44,10.0,NNE,10.4,-,N/A,,Clear,20,2013-03-06 00:53:00
7:53 PM,19.9,14.0,78,30.45,10.0,NE,4.6,-,N/A,,Clear,40,2013-03-06 01:53:00
8:53 PM,19.9,12.9,74,30.45,10.0,NNE,3.5,-,N/A,,Clear,20,2013-03-06 02:53:00
9:53 PM,17.1,12.0,81,30.46,10.0,Calm,Calm,-,N/A,,Clear,0,2013-03-06 03:53:00
10:53 PM,17.1,12.9,84,30.47,10.0,SSE,4.6,-,N/A,,Clear,150,2013-03-06 04:53:00
11:53 PM,15.1,10.9,84,30.45,10.0,SSE,5.8,-,N/A,,Clear,150,2013-03-06 05:53:00